1515592800.95,48480,11.88,73184.3,-2.53,-17.93,-19.13,0,*52
1515592802.18,48481,11.88,73184.3,-2.53,-17.97,-19.13,0,*57
1515592803.39,48482,11.88,73178.5,-2.53,-18.07,-19.17,0,*56
1515592804.6,48483,11.88,73182.0,-2.53,-18.07,-19.13,0,*53
1515592805.81,48484,11.88,73180.8,-2.53,-18.07,-19.17,0,*50
1515592807.05,48485,11.88,73180.3,-2.53,-17.97,-19.17,0,*57
1515592808.28,48486,11.88,73182.3,-2.55,-18.07,-19.17,0,*54
1515592809.51,48487,11.88,73178.3,-2.53,-18.21,-19.27,0,*54
1515592810.75,48488,11.88,73176.3,-2.53,-18.21,-19.31,0,*5C
1515592812.0,48489,11.88,73180.0,-2.55,-18.21,-19.27,0,*5C
1515592813.23,48490,11.88,73182.0,-2.53,-18.11,-19.27,0,*51
1515592814.49,48491,11.88,73182.0,-2.55,-18.21,-19.31,0,*52
1515592815.74,48492,11.88,73182.8,-2.55,-18.25,-19.31,0,*55
1515592817.0,48493,11.88,73180.5,-2.55,-18.21,-19.31,0,*50
1515592818.2,48494,11.88,73178.0,-2.57,-18.25,-19.37,0,*57
1515592819.46,48495,11.88,73178.5,-2.55,-18.25,-19.27,0,*55
1515592820.71,48496,11.88,73178.8,-2.55,-18.11,-19.31,0,*56
1515592821.97,48497,11.88,73178.8,-2.55,-18.21,-19.31,0,*54
1515592823.2,48498,11.88,73178.5,-2.57,-18.17,-19.31,0,*5C
1515592824.42,48499,11.88,73176.3,-2.57,-18.17,-19.31,0,*5D
1515592825.65,48500,11.88,73178.5,-2.57,-18.17,-19.31,0,*5C
1515592826.92,48501,11.88,73180.5,-2.59,-18.31,-19.37,0,*51
1515592828.15,48502,11.88,73180.8,-2.57,-18.31,-19.37,0,*5C
1515592829.39,48503,11.88,73182.0,-2.59,-18.21,-19.37,0,*52
1515592830.61,48504,11.88,73180.3,-2.57,-18.25,-19.31,0,*59
1515592831.85,48505,11.88,73180.8,-2.59,-18.21,-19.37,0,*54
1515592833.08,48506,11.88,73180.3,-2.59,-18.21,-19.37,0,*57
1515592834.32,48507,11.88,73182.3,-2.59,-18.17,-19.37,0,*53
1515592835.55,48508,11.81,73176.0,-2.57,-18.17,-19.31,0,*54
1515592836.77,48509,11.88,73182.5,-2.57,-18.17,-19.31,0,*55
1515592838.03,48510,11.88,73182.3,-2.59,-18.21,-19.27,0,*51
1515592839.29,48511,11.88,73180.0,-2.59,-18.21,-19.27,0,*50
1515592840.55,48512,11.88,73180.3,-2.59,-18.21,-19.27,0,*53
1515592841.77,48513,11.88,73184.8,-2.57,-18.25,-19.23,0,*5C
1515592843.03,48514,11.88,73182.8,-2.59,-18.35,-19.37,0,*51
1515592844.27,48515,11.88,73182.5,-2.59,-18.21,-19.37,0,*55
1515592845.5,48516,11.88,73188.3,-2.59,-18.21,-19.37,0,*56
1515592846.77,48517,11.88,73182.8,-2.59,-18.31,-19.37,0,*56
1515592848.0,48518,11.88,73184.5,-2.59,-18.21,-19.37,0,*58
1515592849.23,48519,11.88,73180.3,-2.61,-18.21,-19.27,0,*53
1515592850.49,48520,11.88,73180.5,-2.59,-18.17,-19.23,0,*53
1515592851.74,48521,11.81,73176.0,-2.59,-18.17,-19.23,0,*52
1515592852.99,48522,11.88,73178.8,-2.59,-18.17,-19.23,0,*51
1515592854.25,48523,11.88,73182.5,-2.59,-18.07,-19.23,0,*51
1515592855.48,48524,11.88,73184.0,-2.59,-18.17,-19.13,0,*54
1515592856.77,48525,11.88,73180.3,-2.59,-18.31,-19.23,0,*52
1515592858.03,48526,11.81,73178.5,-2.59,-18.21,-19.27,0,*54
1515592859.29,48527,11.88,73178.5,-2.59,-18.31,-19.37,0,*55
1515592860.56,48528,11.88,73186.3,-2.59,-18.31,-19.37,0,*5A
1515592861.82,48529,11.88,73188.8,-2.59,-18.31,-19.37,0,*5B
1515592863.03,48530,11.88,73188.3,-2.61,-18.21,-19.37,0,*59
1515592864.28,48531,11.88,73184.3,-2.59,-18.21,-19.23,0,*56
1515592865.51,48532,11.88,73188.0,-2.61,-18.21,-19.23,0,*5E
1515592866.74,48533,11.88,73184.8,-2.61,-18.21,-19.27,0,*5B
1515592868.0,48534,11.88,73184.8,-2.63,-18.25,-19.27,0,*5A
1515592869.23,48535,11.88,73180.5,-2.61,-18.21,-19.23,0,*59
1515592870.44,48536,11.88,73178.3,-2.61,-18.21,-19.13,0,*59
1515592871.67,48537,11.88,73174.8,-2.63,-18.21,-19.17,0,*5E
1515592872.87,48538,11.88,73176.8,-2.61,-18.17,-19.07,0,*57
1515592874.1,48539,11.88,73182.5,-2.61,-18.17,-19.23,0,*50
1515592875.31,48540,11.88,73182.3,-2.61,-18.21,-19.13,0,*58
1515592876.5,48541,11.88,73178.0,-2.61,-18.21,-19.07,0,*5C
1515592877.7,48542,11.88,73180.8,-2.61,-18.17,-19.07,0,*5A
1515592878.9,48543,11.88,73182.0,-2.61,-18.17,-19.07,0,*5B
1515592880.11,48544,11.88,73184.0,-2.61,-18.17,-19.13,0,*59
1515592881.3,48545,11.88,73182.8,-2.61,-18.21,-19.07,0,*58
1515592882.5,48546,11.81,73182.3,-2.61,-18.21,-19.07,0,*5B
1515592883.7,48547,11.88,73180.0,-2.61,-18.17,-18.99,0,*59
1515592884.91,48548,11.88,73186.8,-2.61,-18.07,-18.99,0,*57
1515592886.11,48549,11.88,73184.8,-2.61,-18.17,-18.99,0,*57
1515592887.31,48550,11.81,73182.0,-2.61,-18.21,-19.03,0,*58
1515592888.54,48551,11.88,73184.3,-2.63,-18.21,-19.13,0,*5A
1515592889.74,48552,11.88,73184.3,-2.61,-18.17,-18.99,0,*5D
1515592890.97,48553,11.88,73184.8,-2.63,-18.11,-18.99,0,*58
1515592892.22,48554,11.88,73186.8,-2.63,-18.11,-18.89,0,*5E
1515592893.42,48555,11.88,73190.0,-2.61,-18.07,-18.99,0,*5B
1515592894.68,48556,11.88,73190.5,-2.63,-18.11,-18.89,0,*5C
1515592895.91,48557,11.81,73186.0,-2.63,-18.07,-18.83,0,*50
1515592897.13,48558,11.88,73184.3,-2.61,-18.01,-18.79,0,*5E
1515592898.33,48559,11.88,73184.8,-2.61,-18.07,-18.79,0,*59
1515592899.54,48560,11.88,73180.8,-2.61,-18.07,-18.83,0,*56
1515592900.74,48561,11.88,73182.0,-2.61,-18.17,-18.83,0,*56
1515592901.94,48562,11.88,73180.3,-2.61,-18.17,-18.99,0,*5E
1515592903.17,48563,11.88,73180.3,-2.63,-18.21,-18.99,0,*58
1515592904.42,48564,11.88,73184.8,-2.63,-18.21,-18.89,0,*5E
1515592905.65,48565,11.88,73182.8,-2.61,-17.93,-18.69,0,*55
1515592906.88,48566,11.88,73184.3,-2.61,-18.01,-18.79,0,*53
1515592908.11,48567,11.88,73190.0,-2.61,-18.01,-18.79,0,*52
1515592909.34,48568,11.88,73188.8,-2.61,-18.01,-18.69,0,*5C
1515592910.54,48569,11.81,73180.8,-2.61,-18.07,-18.79,0,*5A
1515592911.74,48570,11.88,73186.5,-2.61,-18.17,-18.79,0,*53
1515592912.94,48571,11.88,73186.5,-2.61,-18.07,-18.79,0,*53
1515592914.15,48572,11.81,73180.5,-2.61,-18.07,-18.65,0,*5D
1515592915.36,48573,11.88,73186.8,-2.61,-18.07,-18.69,0,*50
1515592916.57,48574,11.88,73186.0,-2.61,-18.07,-18.69,0,*57
1515592917.77,48575,11.88,73186.3,-2.61,-18.17,-18.79,0,*56
1515592918.98,48576,11.88,73184.0,-2.61,-18.07,-18.69,0,*55
1515592920.18,48577,11.88,73182.5,-2.61,-18.17,-18.79,0,*54
1515592921.38,48578,11.88,73184.8,-2.61,-18.17,-18.83,0,*5E
1515592922.58,48579,11.88,73186.0,-2.61,-18.17,-18.83,0,*5F
1515592923.84,48580,11.88,73188.3,-2.59,-18.21,-18.93,0,*56
1515592925.12,48581,11.88,73188.0,-2.59,-18.31,-18.93,0,*56
1515592926.38,48582,11.88,73184.5,-2.59,-18.21,-18.93,0,*54
1515592927.64,48583,11.88,73190.3,-2.59,-18.21,-18.93,0,*55
1515592928.84,48584,11.88,73190.0,-2.61,-18.21,-18.83,0,*58
1515592930.06,48585,11.88,73186.5,-2.59,-18.17,-18.83,0,*57
1515592931.27,48586,11.88,73184.5,-2.61,-18.17,-18.83,0,*5F
1515592932.52,48587,11.88,73184.3,-2.63,-18.25,-18.89,0,*57
1515592933.75,48588,11.88,73188.0,-2.61,-18.21,-18.93,0,*55
1515592934.95,48589,11.88,73190.5,-2.61,-18.21,-18.83,0,*55
1515592936.16,48590,11.88,73190.0,-2.61,-18.07,-18.69,0,*5D
1515592937.39,48591,11.81,73186.8,-2.63,-18.17,-18.73,0,*54
1515592938.6,48592,11.88,73190.0,-2.61,-18.07,-18.79,0,*5E
1515592939.8,48593,11.88,73188.3,-2.61,-18.17,-18.69,0,*5F
1515592941.0,48594,11.88,73188.3,-2.61,-18.17,-18.79,0,*59
1515592942.26,48595,11.88,73186.0,-2.63,-18.21,-18.89,0,*50
1515592943.46,48596,11.88,73182.0,-2.61,-18.21,-18.83,0,*5B
1515592944.66,48597,11.88,73186.3,-2.61,-18.21,-18.83,0,*5A
1515592945.92,48598,11.88,73186.3,-2.61,-18.31,-18.93,0,*55
1515592947.15,48599,11.88,73186.8,-2.61,-18.31,-18.99,0,*5E
1515592948.41,48600,11.88,73186.3,-2.61,-18.31,-18.93,0,*57
1515592949.67,48601,11.88,73182.5,-2.61,-18.31,-18.93,0,*56
1515592950.87,48602,11.88,73182.5,-2.61,-18.21,-18.83,0,*55
1515592952.13,48603,11.88,73184.8,-2.63,-18.35,-18.83,0,*53
1515592953.36,48604,11.88,73186.5,-2.61,-18.21,-18.93,0,*52
1515592954.56,48605,11.88,73182.0,-2.61,-18.21,-18.99,0,*59
1515592955.81,48606,11.88,73186.5,-2.63,-18.25,-18.89,0,*5D
1515592957.09,48607,11.88,73186.8,-2.63,-18.35,-18.89,0,*5D
1515592958.35,48608,11.88,73186.8,-2.63,-18.35,-18.83,0,*58
1515592959.58,48609,11.88,73188.0,-2.61,-18.31,-18.79,0,*5A
1515592960.83,48610,11.88,73190.5,-2.63,-18.41,-18.89,0,*58
1515592962.06,48611,11.88,73192.3,-2.61,-18.35,-18.83,0,*52
1515592963.32,48612,11.88,73188.8,-2.63,-18.41,-18.89,0,*5A
1515592964.52,48613,11.88,73192.5,-2.61,-18.21,-18.79,0,*50
1515592965.72,48614,11.88,73192.0,-2.61,-18.21,-18.69,0,*56
1515592966.95,48615,11.88,73192.8,-2.63,-18.25,-18.83,0,*55
1515592968.21,48616,11.88,73190.8,-2.63,-18.35,-18.73,0,*58
1515592969.45,48617,11.88,73190.8,-2.63,-18.21,-18.69,0,*57
1515592970.68,48618,11.88,73192.8,-2.63,-18.21,-18.69,0,*58
1515592971.92,48619,11.88,73186.8,-2.63,-18.21,-18.69,0,*59
1515592973.15,48620,11.88,73188.8,-2.63,-18.21,-18.73,0,*58
1515592974.43,48621,11.88,73186.3,-2.63,-18.35,-18.59,0,*54
1515592975.64,48622,11.88,73186.8,-2.65,-18.25,-18.73,0,*58
1515592976.88,48623,11.88,73188.0,-2.63,-18.25,-18.59,0,*57
1515592978.11,48624,11.88,73188.8,-2.65,-18.25,-18.55,0,*5A
1515592979.34,48625,11.88,73186.5,-2.65,-18.11,-18.55,0,*5C
1515592980.57,48626,11.88,73186.0,-2.65,-18.17,-18.55,0,*59
1515592981.8,48627,11.88,73186.8,-2.65,-18.07,-18.35,0,*5F
1515592983.06,48628,11.88,73188.0,-2.63,-17.97,-18.41,0,*53
1515592984.29,48629,11.88,73190.5,-2.65,-17.97,-18.41,0,*54
1515592985.53,48630,11.88,73186.8,-2.65,-17.97,-18.21,0,*5A
1515592986.74,48631,11.88,73188.8,-2.65,-17.83,-18.21,0,*5E
1515592988.03,48632,11.88,73192.8,-2.67,-18.01,-18.31,0,*5B
1515592989.25,48633,11.88,73184.3,-2.65,-17.93,-18.25,0,*59
1515592990.49,48634,11.88,73188.0,-2.65,-17.93,-18.11,0,*59
1515592991.72,48635,11.88,73190.3,-2.65,-17.93,-18.11,0,*58
1515592992.96,48636,11.88,73186.8,-2.65,-17.79,-18.11,0,*5F
1515592994.16,48637,11.88,73186.5,-2.65,-17.83,-18.21,0,*58
1515592995.38,48638,11.88,73182.5,-2.65,-17.83,-18.11,0,*54
1515592996.59,48639,11.88,73180.8,-2.65,-17.83,-18.11,0,*55
1515592997.83,48640,11.88,73176.0,-2.65,-17.83,-17.97,0,*5A
1515592999.08,48641,11.81,73178.8,-2.65,-17.79,-17.97,0,*5E
1515593000.32,48642,11.88,73178.0,-2.65,-17.69,-17.97,0,*5C
1515593001.53,48643,11.88,73176.8,-2.65,-17.69,-17.83,0,*58
1515593002.77,48644,11.88,73176.5,-2.65,-17.59,-17.83,0,*5C
1515593004.02,48645,11.88,73176.0,-2.65,-17.59,-17.79,0,*58
1515593005.27,48646,11.88,73174.5,-2.67,-17.63,-17.73,0,*5A
1515593006.52,48647,11.88,73174.8,-2.65,-17.63,-17.79,0,*53
1515593007.76,48648,11.88,73178.0,-2.65,-17.59,-17.69,0,*54
1515593009.01,48649,11.88,73172.8,-2.67,-17.63,-17.73,0,*55
1515593010.24,48650,11.88,73174.8,-2.65,-17.49,-17.59,0,*5F
1515593011.48,48651,11.88,73174.3,-2.65,-17.49,-17.59,0,*5E
1515593012.71,48652,11.88,73172.5,-2.65,-17.49,-17.59,0,*5D
1515593013.98,48653,11.88,73176.0,-2.65,-17.45,-17.59,0,*50
1515593015.21,48654,11.88,73176.0,-2.65,-17.31,-17.59,0,*54
1515593016.5,48655,11.88,73180.8,-2.63,-17.45,-17.59,0,*50
1515593017.73,48656,11.88,73178.3,-2.65,-17.49,-17.59,0,*59
1515593018.94,48657,11.88,73174.8,-2.65,-17.49,-17.49,0,*59
1515593020.17,48658,11.88,73178.8,-2.65,-17.45,-17.49,0,*5A
1515593021.44,48659,11.88,73178.5,-2.65,-17.45,-17.45,0,*57
1515593022.7,48660,11.88,73176.0,-2.65,-17.45,-17.45,0,*5D
1515593023.93,48661,11.81,73174.3,-2.63,-17.35,-17.49,0,*51
1515593025.13,48662,11.88,73184.0,-2.65,-17.31,-17.31,0,*5F
1515593026.33,48663,11.88,73176.8,-2.65,-17.31,-17.31,0,*5E
1515593027.53,48664,11.88,73180.8,-2.65,-17.31,-17.31,0,*59
1515593028.78,48665,11.88,73182.5,-2.67,-17.35,-17.35,0,*5A
1515593030.03,48666,11.88,73184.3,-2.65,-17.21,-17.17,0,*5E
1515593031.29,48667,11.88,73180.8,-2.65,-17.21,-17.17,0,*5F
1515593032.58,48668,11.88,73182.3,-2.67,-17.21,-17.11,0,*54
1515593033.84,48669,11.88,73186.8,-2.65,-17.03,-17.03,0,*54
1515593035.1,48670,11.88,73186.0,-2.65,-17.07,-17.03,0,*58
1515593036.36,48671,11.88,73190.8,-2.65,-17.07,-17.03,0,*59
1515593037.59,48672,11.88,73184.0,-2.65,-17.07,-16.93,0,*52
1515593038.85,48673,11.88,73186.3,-2.65,-17.21,-17.07,0,*5B
1515593040.11,48674,11.81,73184.0,-2.65,-17.07,-17.03,0,*5C
1515593041.34,48675,11.88,73194.8,-2.65,-17.07,-16.93,0,*55
1515593042.54,48676,11.88,73190.5,-2.65,-16.93,-16.89,0,*51
1515593043.77,48677,11.88,73188.3,-2.65,-17.03,-16.93,0,*53
1515593044.97,48678,11.88,73188.0,-2.65,-16.93,-16.89,0,*5F
1515593046.18,48679,11.88,73184.5,-2.65,-16.93,-16.75,0,*5D
1515593047.39,48680,11.81,73186.0,-2.65,-16.89,-16.75,0,*50
1515593048.63,48681,11.88,73188.5,-2.63,-16.93,-16.75,0,*5C
1515593049.86,48682,11.88,73186.8,-2.61,-16.83,-16.69,0,*51
1515593051.1,48683,11.88,73190.5,-2.63,-16.89,-16.75,0,*55
1515593052.34,48684,11.88,73194.0,-2.63,-16.93,-16.75,0,*59
1515593053.57,48685,11.88,73190.0,-2.61,-16.83,-16.69,0,*56
1515593054.81,48686,11.88,73188.5,-2.63,-16.79,-16.55,0,*5D
1515593056.05,48687,11.88,73186.5,-2.63,-16.79,-16.59,0,*50
1515593057.29,48688,11.81,73190.3,-2.63,-16.89,-16.55,0,*5C
1515593058.5,48689,11.88,73190.5,-2.61,-16.83,-16.55,0,*55
1515593059.73,48690,11.88,73188.5,-2.63,-16.89,-16.55,0,*55
1515593061.0,48691,11.88,73188.8,-2.63,-16.65,-16.55,0,*56
1515593062.23,48692,11.88,73194.5,-2.63,-16.79,-16.45,0,*59
1515593063.46,48693,11.88,73186.5,-2.61,-16.69,-16.37,0,*5E
1515593064.69,48694,11.88,73186.5,-2.63,-16.79,-16.41,0,*5B
1515593065.9,48695,11.88,73188.8,-2.61,-16.75,-16.37,0,*55
1515593067.13,48696,11.88,73186.0,-2.61,-16.69,-16.37,0,*5B
1515593068.34,48697,11.88,73184.5,-2.61,-16.59,-16.37,0,*59
1515593069.6,48698,11.88,73184.5,-2.61,-16.51,-16.13,0,*58
1515593070.86,48699,11.88,73188.3,-2.61,-16.51,-16.13,0,*59
1515593072.09,48700,11.81,73184.5,-2.61,-16.55,-16.13,0,*5C
1515593073.33,48701,11.88,73186.8,-2.61,-16.55,-16.13,0,*5D
1515593074.57,48702,11.88,73186.0,-2.61,-16.59,-16.23,0,*51
1515593075.8,48703,11.81,73186.3,-2.61,-16.59,-16.23,0,*50
1515593077.06,48704,11.88,73186.8,-2.59,-16.59,-16.27,0,*58
1515593078.34,48705,11.88,73184.8,-2.59,-16.69,-16.23,0,*5E
1515593079.6,48706,11.88,73184.8,-2.59,-16.59,-16.23,0,*5E
1515593080.89,48707,11.88,73182.0,-2.59,-16.69,-16.23,0,*5C
1515593082.15,48708,11.88,73184.5,-2.59,-16.75,-16.27,0,*5A
1515593083.41,48709,11.88,73186.3,-2.59,-16.59,-16.23,0,*51
1515593084.66,48710,11.81,73178.5,-2.57,-16.51,-16.23,0,*5F
1515593085.89,48711,11.88,73182.5,-2.57,-16.55,-16.23,0,*5A
1515593087.15,48712,11.88,73184.0,-2.57,-16.51,-16.17,0,*5A
1515593088.39,48713,11.88,73174.8,-2.57,-16.55,-16.17,0,*5F
1515593089.62,48714,11.88,73182.5,-2.57,-16.59,-16.27,0,*57
1515593090.88,48715,11.88,73184.3,-2.59,-16.59,-16.23,0,*5C
1515593092.11,48716,11.81,73186.8,-2.57,-16.55,-16.23,0,*5D
1515593093.34,48717,11.88,73188.0,-2.57,-16.69,-16.37,0,*56
1515593094.54,48718,11.88,73188.0,-2.57,-16.79,-16.45,0,*5D
1515593095.74,48719,11.88,73192.5,-2.57,-16.79,-16.37,0,*59
1515593096.96,48720,11.81,73188.5,-2.57,-16.69,-16.45,0,*57
1515593098.22,48721,11.88,73188.5,-2.57,-16.65,-16.31,0,*59
1515593099.48,48722,11.81,73188.3,-2.59,-16.59,-16.27,0,*5C
1515593100.71,48723,11.81,73188.5,-2.57,-16.55,-16.23,0,*5B
1515593101.94,48724,11.88,73194.5,-2.57,-16.55,-16.31,0,*5F
1515593103.2,48725,11.81,73192.0,-2.57,-16.65,-16.31,0,*5D
1515593104.44,48726,11.88,73198.0,-2.59,-16.55,-16.41,0,*54
1515593105.72,48727,11.88,73198.3,-2.55,-16.51,-16.31,0,*5A
1515593106.95,48728,11.81,73192.0,-2.57,-16.65,-16.37,0,*56
1515593108.17,48729,11.88,73194.0,-2.57,-16.69,-16.45,0,*5E
1515593109.42,48730,11.88,73190.8,-2.57,-16.69,-16.51,0,*53
1515593110.68,48731,11.88,73188.8,-2.57,-16.69,-16.51,0,*52
1515593111.9,48732,11.88,73186.0,-2.57,-16.83,-16.51,0,*55
1515593113.13,48733,11.88,73182.8,-2.57,-16.79,-16.51,0,*51
1515593114.36,48734,11.88,73184.8,-2.57,-16.79,-16.51,0,*56
1515593115.6,48735,11.88,73186.3,-2.59,-16.75,-16.55,0,*51
1515593116.8,48736,11.88,73188.8,-2.57,-16.55,-16.37,0,*5A
1515593118.03,48737,11.81,73182.3,-2.57,-16.37,-16.23,0,*5A
1515593119.32,48738,11.81,73182.3,-2.59,-16.51,-16.17,0,*5C
1515593120.55,48739,11.88,73186.8,-2.57,-16.37,-16.17,0,*53
1515593121.79,48740,11.88,73190.3,-2.57,-16.37,-16.17,0,*5D
1515593123.02,48741,11.88,73190.3,-2.57,-16.37,-16.17,0,*5C
1515593124.28,48742,11.88,73186.5,-2.59,-16.37,-16.23,0,*56
1515593125.54,48743,11.88,73186.5,-2.59,-16.37,-16.23,0,*57
1515593126.77,48744,11.88,73184.5,-2.57,-16.37,-16.27,0,*5A
1515593128.02,48745,11.88,73186.3,-2.57,-16.31,-16.17,0,*5E
1515593129.28,48746,11.88,73186.5,-2.59,-16.37,-16.23,0,*52
1515593130.54,48747,11.88,73186.8,-2.57,-16.31,-16.17,0,*5C
1515593131.77,48748,11.88,73188.3,-2.57,-16.09,-16.03,0,*5D
1515593133.03,48749,11.81,73190.3,-2.57,-16.17,-16.09,0,*59
1515593134.26,48750,11.88,73192.5,-2.57,-16.09,-16.03,0,*54
1515593135.5,48751,11.81,73188.0,-2.57,-16.09,-16.03,0,*55
1515593136.76,48752,11.88,73188.0,-2.57,-16.09,-16.09,0,*5C
1515593138.02,48753,11.81,73186.3,-2.57,-16.17,-16.23,0,*5A
1515593139.24,48754,11.88,73186.3,-2.57,-16.31,-16.37,0,*5C
1515593140.47,48755,11.88,73188.3,-2.55,-16.41,-16.45,0,*5D
1515593141.72,48756,11.88,73178.8,-2.55,-16.31,-16.45,0,*59
1515593142.95,48757,11.81,73176.8,-2.57,-16.37,-16.65,0,*5E
1515593144.18,48758,11.88,73180.8,-2.57,-16.37,-16.65,0,*51
1515593145.41,48759,11.81,73180.5,-2.57,-16.37,-16.65,0,*50
1515593146.64,48760,11.88,73176.0,-2.57,-16.37,-16.65,0,*5A
1515593147.87,48761,11.88,73176.5,-2.57,-16.37,-16.65,0,*5B
1515593149.1,48762,11.88,73188.8,-2.57,-16.37,-16.69,0,*54
1515593150.33,48763,11.81,73188.0,-2.57,-16.37,-16.69,0,*55
1515593151.57,48764,11.88,73188.0,-2.59,-16.41,-16.75,0,*50
1515593152.83,48765,11.81,73186.8,-2.59,-16.51,-16.83,0,*59
1515593154.11,48766,11.88,73186.0,-2.59,-16.27,-16.69,0,*5F
1515593155.34,48767,11.81,73186.8,-2.57,-16.09,-16.45,0,*52
1515593156.6,48768,11.81,73182.5,-2.59,-16.23,-16.55,0,*5A
1515593157.86,48769,11.81,73180.5,-2.55,-16.17,-16.45,0,*51
1515593159.11,48770,11.81,73186.8,-2.57,-16.23,-16.65,0,*5E
1515593160.39,48771,11.88,73186.5,-2.59,-16.27,-16.69,0,*59
1515593161.65,48772,11.88,73184.3,-2.57,-16.17,-16.65,0,*5B
1515593162.91,48773,11.88,73184.8,-2.59,-16.23,-16.75,0,*52
1515593164.16,48774,11.88,73186.3,-2.57,-16.17,-16.69,0,*51
1515593165.45,48775,11.81,73182.5,-2.59,-16.13,-16.69,0,*5A
1515593166.7,48776,11.81,73180.0,-2.59,-15.99,-16.69,0,*58
1515593167.93,48777,11.88,73188.5,-2.57,-16.03,-16.51,0,*5C
1515593169.16,48778,11.88,73186.3,-2.59,-15.99,-16.55,0,*59
1515593170.42,48779,11.88,73190.8,-2.59,-15.85,-16.55,0,*55
1515593171.65,48780,11.88,73184.5,-2.59,-15.95,-16.55,0,*52
1515593172.91,48781,11.88,73186.8,-2.59,-15.85,-16.55,0,*52
1515593174.17,48782,11.81,73180.0,-2.57,-15.89,-16.51,0,*57
1515593175.43,48783,11.81,73178.0,-2.59,-15.85,-16.55,0,*50
1515593176.66,48784,11.88,73178.5,-2.59,-15.71,-16.41,0,*59
1515593177.89,48785,11.88,73180.0,-2.57,-15.67,-16.51,0,*50
1515593179.12,48786,11.81,73174.8,-2.59,-15.63,-16.41,0,*58
1515593180.35,48787,11.88,73168.8,-2.59,-15.63,-16.37,0,*58
1515593181.58,48788,11.81,73170.8,-2.59,-15.63,-16.37,0,*57
1515593182.81,48789,11.81,73172.0,-2.57,-15.57,-16.37,0,*5F
1515593184.04,48790,11.88,73176.8,-2.59,-15.63,-16.41,0,*5F
1515593185.27,48791,11.81,73178.0,-2.59,-15.53,-16.37,0,*5C
1515593186.5,48792,11.88,73182.3,-2.59,-15.53,-16.37,0,*5F
1515593187.76,48793,11.88,73184.8,-2.59,-15.53,-16.51,0,*5E
1515593189.02,48794,11.81,73180.0,-2.59,-15.63,-16.51,0,*5A
1515593190.25,48795,11.88,73182.0,-2.59,-15.53,-16.41,0,*59
1515593191.49,48796,11.88,73182.5,-2.59,-15.53,-16.41,0,*5A
1515593192.72,48797,11.81,73180.0,-2.59,-15.53,-16.37,0,*5A
1515593193.95,48798,11.81,73176.5,-2.59,-15.49,-16.41,0,*5F
1515593195.18,48799,11.81,73178.0,-2.59,-15.49,-16.37,0,*5F
1515593196.41,48800,11.88,73176.3,-2.59,-15.49,-16.37,0,*50
1515593197.67,48801,11.88,73176.3,-2.59,-15.39,-16.37,0,*56
1515593198.89,48802,11.88,73182.3,-2.57,-15.35,-16.37,0,*57
1515593200.15,48803,11.88,73178.8,-2.59,-15.39,-16.37,0,*54
1515593201.43,48804,11.88,73176.5,-2.59,-15.35,-16.27,0,*5E
1515593202.66,48805,11.81,73172.5,-2.59,-15.25,-16.37,0,*5F
1515593203.92,48806,11.88,73174.0,-2.59,-15.25,-16.27,0,*5D
1515593205.18,48807,11.81,73176.3,-2.59,-15.39,-16.37,0,*50
1515593206.44,48808,11.81,73172.0,-2.59,-15.39,-16.41,0,*5E
1515593207.67,48809,11.88,73178.3,-2.61,-15.39,-16.41,0,*54
1515593208.9,48810,11.88,73176.3,-2.61,-15.35,-16.41,0,*50
1515593210.16,48811,11.88,73174.5,-2.63,-15.39,-16.45,0,*5B
1515593211.42,48812,11.88,73176.8,-2.63,-15.43,-16.55,0,*54
1515593212.65,48813,11.81,73176.0,-2.61,-15.35,-16.41,0,*53
1515593213.89,48814,11.81,73174.3,-2.63,-15.29,-16.41,0,*5B
1515593215.15,48815,11.88,73176.3,-2.63,-15.25,-16.27,0,*56
1515593216.41,48816,11.88,73178.0,-2.63,-15.11,-16.17,0,*51
1515593217.67,48817,11.81,73172.5,-2.63,-15.25,-16.17,0,*57
1515593218.93,48818,11.81,73172.5,-2.63,-15.15,-16.27,0,*58
1515593220.19,48819,11.81,73176.0,-2.63,-15.11,-16.17,0,*5E
1515593221.46,48820,11.88,73178.0,-2.63,-15.01,-16.13,0,*51
1515593222.74,48821,11.81,73178.3,-2.63,-14.97,-16.13,0,*5E
1515593224.03,48822,11.81,73178.0,-2.63,-14.83,-15.89,0,*58
1515593225.32,48823,11.88,73176.8,-2.63,-14.83,-15.85,0,*55
1515593226.61,48824,11.81,73174.3,-2.67,-14.75,-15.89,0,*53
1515593227.84,48825,11.88,73176.8,-2.65,-14.55,-15.71,0,*55
1515593229.08,48826,11.88,73176.0,-2.65,-14.79,-15.75,0,*5C
1515593230.34,48827,11.81,73178.0,-2.65,-14.83,-15.85,0,*57
1515593231.6,48828,11.81,73182.5,-2.65,-14.79,-15.85,0,*5D
1515593232.82,48829,11.88,73180.8,-2.65,-14.69,-15.85,0,*5D
1515593234.07,48830,11.81,73178.5,-2.65,-14.51,-15.71,0,*55
1515593235.3,48831,11.81,73178.8,-2.65,-14.55,-15.71,0,*50
1515593236.56,48832,11.81,73178.5,-2.65,-14.43,-15.57,0,*50
1515593237.85,48833,11.88,73182.3,-2.67,-14.43,-15.57,0,*53
1515593239.06,48834,11.81,73182.8,-2.65,-14.29,-15.53,0,*5E
1515593240.31,48835,11.88,73180.3,-2.67,-14.33,-15.49,0,*5D
1515593241.57,48836,11.88,73178.8,-2.67,-14.29,-15.57,0,*5A
1515593242.82,48837,11.81,73178.8,-2.67,-14.15,-15.29,0,*5D
1515593244.07,48838,11.88,73180.0,-2.67,-14.15,-15.29,0,*52
1515593245.3,48839,11.88,73180.5,-2.65,-14.15,-15.25,0,*5D
1515593246.57,48840,11.88,73182.0,-2.67,-14.05,-15.29,0,*5C
1515593247.84,48841,11.88,73182.5,-2.67,-14.15,-15.21,0,*54
1515593249.11,48842,11.81,73178.5,-2.67,-14.01,-15.07,0,*56
1515593250.34,48843,11.88,73184.3,-2.67,-13.93,-15.15,0,*58
1515593251.6,48844,11.81,73180.0,-2.65,-13.87,-14.97,0,*53
1515593252.86,48845,11.81,73180.8,-2.67,-13.93,-14.93,0,*51
1515593254.15,48846,11.81,73182.3,-2.67,-13.83,-14.93,0,*53
1515593255.41,48847,11.81,73182.3,-2.69,-13.87,-14.93,0,*58
1515593256.69,48848,11.81,73180.3,-2.69,-13.83,-14.83,0,*52
1515593257.94,48849,11.81,73184.8,-2.67,-13.69,-14.75,0,*50
1515593259.23,48850,11.88,73184.8,-2.67,-13.61,-14.75,0,*50
1515593260.46,48851,11.81,73180.8,-2.67,-13.55,-14.69,0,*5B
1515593261.69,48852,11.81,73184.8,-2.67,-13.55,-14.61,0,*50
1515593262.93,48853,11.88,73184.0,-2.69,-13.55,-14.55,0,*58
1515593264.17,48854,11.88,73186.8,-2.69,-13.43,-14.43,0,*5F
1515593265.4,48855,11.88,73186.5,-2.69,-13.43,-14.43,0,*5E
1515593266.64,48856,11.88,73190.3,-2.69,-13.29,-14.33,0,*56
1515593267.87,48857,11.88,73186.5,-2.67,-13.43,-14.33,0,*55
1515593269.08,48858,11.88,73184.5,-2.69,-13.43,-14.33,0,*54
1515593270.32,48859,11.88,73188.0,-2.69,-13.29,-14.19,0,*51
1515593271.56,48860,11.88,73188.3,-2.69,-13.29,-14.19,0,*5B
1515593272.82,48861,11.88,73194.0,-2.67,-13.29,-14.19,0,*54
1515593274.05,48862,11.81,73190.3,-2.67,-13.15,-14.15,0,*54
1515593275.32,48863,11.81,73186.5,-2.67,-13.19,-14.01,0,*5C
1515593276.55,48864,11.81,73184.8,-2.73,-13.19,-14.05,0,*5A
1515593277.78,48865,11.81,73186.5,-2.69,-13.07,-13.87,0,*52
1515593279.04,48866,11.81,73184.5,-2.67,-13.07,-13.87,0,*5F
1515593280.3,48867,11.81,73186.5,-2.69,-13.01,-13.87,0,*56
1515593281.56,48868,11.88,73188.0,-2.69,-13.01,-13.83,0,*5D
1515593282.76,48869,11.88,73190.8,-2.69,-12.89,-13.69,0,*59
1515593283.97,48870,11.88,73190.5,-2.69,-12.97,-13.69,0,*5E
1515593285.23,48871,11.88,73188.5,-2.67,-12.89,-13.61,0,*56
1515593286.51,48872,11.88,73190.8,-2.67,-12.83,-13.61,0,*5F
1515593287.74,48873,11.88,73190.8,-2.67,-12.89,-13.47,0,*50
1515593288.97,48874,11.81,73188.5,-2.65,-12.71,-13.43,0,*56
1515593290.25,48875,11.88,73192.3,-2.67,-12.75,-13.33,0,*56
1515593291.54,48876,11.81,73192.0,-2.67,-12.75,-13.33,0,*55
1515593292.82,48877,11.81,73194.0,-2.67,-12.75,-13.29,0,*5F
1515593294.06,48878,11.81,73190.3,-2.65,-12.57,-13.23,0,*58
1515593295.34,48879,11.81,73190.3,-2.67,-12.71,-13.29,0,*55